Location: Wanzleben
(52.0609°N, 11.4408°E)
Time: 16:43:55
(UTC+00:00)

Envisat - Pass Details

Date: 04 December 2020
Orbit: 764 x 766 km, 98.1° (Epoch: 20 January)

Event Time Altitude Azimuth Distance (km) Brightness Sun altitude
Rises 03:26:14 0° 31° (NNE) 3,246 6.7 -32.4°
Reaches altitude 10° 03:31:07 10° 73° (ENE) 2,311 6.3 -31.6°
Maximum altitude 03:31:52 10° 82° (E) 2,288 6.3 -31.5°
Drops below altitude 10° 03:32:38 10° 90° (E) 2,308 6.4 -31.4°
Sets 03:37:28 0° 132° (SE) 3,225 6.8 -30.7°
